Date String (YYYY-MM-DD hh:mm:ss) UTC,Instrument flags,absolute air pressure of the measurement (hPa),sample flow rate (lpm),inlet stack bypass flow (lpm),air temperature of the measurement (°C),ambient temperature measured by the external sensor (°C),aerosol sample conditioner tube jacket temperature (°C),OPC LED temperature (°C),internal box temperature (°C),relative humidity of the measurement (%),span deviation,mass concentration of particles derived from Lorenz-Mie calculation of OPC scattering (μg/m³),mass concentration of particles derived from Lorenz-Mie calculation of OPC scattering (μg/m³),mass concentration of particles derived from Lorenz-Mie calculation of OPC scattering (μg/m³)
DateTimeUTC,F1_M11,P_M11,Q1_M11,Q2_M11,T1_M11,T2_M11,T3_M11,T4_M11,T5_M11,U1_M11,ZSPAN_M11,X0_M11,X2_M11,X1_M11
2023-09-28 17:00:00,SystemResetWarning,0828.4,5.01,000.00,028.2,026.5,000.0,036.7,030.0,18.8,0000.0,0012.14,0005.96,0005.15
2023-09-28 17:01:00,SystemResetWarning,0828.4,5.01,000.00,028.3,026.7,000.0,036.7,030.1,18.8,0000.0,0011.85,0005.96,0005.16
2023-09-28 17:02:00,SystemResetWarning,0828.4,5.00,000.00,028.3,027.0,000.0,036.7,030.2,18.2,0000.0,0012.79,0005.97,0005.17
2023-09-28 17:03:00,SystemResetWarning,0828.4,5.00,000.00,028.4,027.2,000.0,036.8,030.2,17.5,0000.0,0013.10,0005.98,0005.18
2023-09-28 17:04:00,SystemResetWarning,0828.4,4.98,000.00,028.4,026.7,000.0,036.8,030.3,17.6,0000.0,0013.14,0006.00,0005.19
2023-09-28 17:05:00,SystemResetWarning,0828.4,5.00,000.00,028.4,025.2,000.0,036.7,030.1,17.3,0000.0,0013.37,0006.03,0005.19
2023-09-28 17:06:00,SystemResetWarning,0828.4,5.01,000.00,028.3,024.7,000.0,036.6,030.0,17.6,0000.0,0012.86,0006.03,0005.19
2023-09-28 17:07:00,SystemResetWarning,0828.4,5.02,000.00,028.3,025.0,000.0,036.6,029.9,17.9,0000.0,0012.28,0006.02,0005.19
2023-09-28 17:08:00,SystemResetWarning,0828.4,4.99,000.00,028.2,025.4,000.0,036.7,029.9,18.3,0000.0,0012.18,0006.03,0005.17
2023-09-28 17:09:00,SystemResetWarning,0828.4,5.00,000.00,028.2,025.8,000.0,036.7,029.9,18.4,0000.0,0013.08,0005.99,0005.16
2023-09-28 17:10:00,SystemResetWarning,0828.4,5.00,000.00,028.2,026.1,000.0,036.7,029.9,18.4,0000.0,0014.72,0005.96,0005.15
2023-09-28 17:11:00,SystemResetWarning,0828.4,5.00,000.00,028.2,026.4,000.0,036.7,030.0,18.8,0000.0,0015.06,0005.94,0005.13
2023-09-28 17:12:00,SystemResetWarning,0828.4,5.00,000.00,028.3,026.7,000.0,036.7,030.1,18.9,0000.0,0015.46,0005.96,0005.12
2023-09-28 17:13:00,SystemResetWarning,0828.4,5.00,000.00,028.3,027.0,000.0,036.7,030.2,18.7,0000.0,0014.38,0005.91,0005.10
2023-09-28 17:14:00,SystemResetWarning,0828.4,5.00,000.00,028.4,027.1,000.0,036.8,030.3,18.5,0000.0,0013.87,0005.85,0005.07
2023-09-28 17:15:00,SystemResetWarning,0828.4,4.98,000.00,028.4,026.1,000.0,036.7,030.2,18.4,0000.0,0013.59,0005.78,0005.04
2023-09-28 17:16:00,SystemResetWarning,0828.4,5.01,000.00,028.3,024.7,000.0,036.7,030.0,18.1,0000.0,0013.43,0005.74,0005.01
2023-09-28 17:17:00,SystemResetWarning,0828.4,5.00,000.00,028.3,024.8,000.0,036.6,030.0,18.5,0000.0,0013.97,0005.69,0005.00
2023-09-28 17:18:00,SystemResetWarning,0828.3,4.99,000.00,028.2,025.1,000.0,036.6,029.8,18.5,0001.3,0013.85,0005.66,0004.99
2023-09-28 17:19:00,SystemResetWarning,0828.3,5.01,000.00,028.2,025.5,000.0,036.7,029.8,19.1,0002.8,0013.96,0005.60,0004.99
2023-09-28 17:20:00,SystemResetWarning,0828.4,4.99,000.00,028.2,025.8,000.0,036.7,029.9,19.6,0001.3,0014.22,0005.56,0004.97
2023-09-28 17:21:00,SystemResetWarning,0828.3,5.00,000.00,028.2,026.2,000.0,036.7,030.0,19.8,0000.0,0012.58,0005.56,0004.96
2023-09-28 17:22:00,SystemResetWarning,0828.3,5.00,000.00,028.2,026.5,000.0,036.7,030.1,20.0,0000.7,0012.71,0005.60,0004.96
2023-09-28 17:23:00,SystemResetWarning,0828.3,5.01,000.00,028.3,026.8,000.0,036.7,030.1,19.2,0003.4,0012.94,0005.63,0004.97
2023-09-28 17:24:00,SystemResetWarning,0828.3,4.99,000.00,028.3,026.7,000.0,036.7,030.2,19.6,0003.3,0013.26,0005.65,0004.97
2023-09-28 17:25:00,SystemResetWarning,0828.3,4.98,000.00,028.3,025.4,000.0,036.7,030.0,20.1,0002.4,0013.52,0005.74,0004.98
2023-09-28 17:26:00,SystemResetWarning,0828.2,5.02,000.00,028.2,024.6,000.0,036.6,029.9,19.3,0001.3,0013.74,0005.80,0004.99
2023-09-28 17:27:00,SystemResetWarning,0828.2,5.00,000.00,028.2,024.9,000.0,036.6,029.8,18.8,0000.0,0014.33,0005.88,0005.01
2023-09-28 17:28:00,SystemResetWarning,0828.2,4.99,000.00,028.1,025.2,000.0,036.6,029.7,19.2,0000.0,0013.66,0005.93,0005.02
2023-09-28 17:29:00,SystemResetWarning,0828.2,5.00,000.00,028.1,025.6,000.0,036.6,029.8,19.6,0000.0,0013.82,0005.98,0005.04
2023-09-28 17:30:00,SystemResetWarning,0828.2,5.00,000.00,028.1,026.0,000.0,036.6,029.9,19.9,0000.0,0014.14,0006.04,0005.06
2023-09-28 17:31:00,SystemResetWarning,0828.2,5.01,000.00,028.2,026.3,000.0,036.6,030.0,20.2,0000.0,0014.51,0006.16,0005.07
2023-09-28 17:32:00,SystemResetWarning,0828.2,5.00,000.00,028.2,026.6,000.0,036.6,030.0,20.3,0000.0,0016.33,0006.24,0005.09
2023-09-28 17:33:00,SystemResetWarning,0828.1,5.00,000.00,028.2,026.9,000.0,036.6,030.1,20.7,0000.0,0016.99,0006.31,0005.10
2023-09-28 17:34:00,SystemResetWarning,0828.2,4.99,000.00,028.3,026.9,000.0,036.7,030.2,20.7,0000.0,0017.61,0006.31,0005.09
2023-09-28 17:35:00,SystemResetWarning,0828.1,4.99,000.00,028.3,025.6,000.0,036.6,030.0,20.7,0000.0,0018.63,0006.30,0005.10
2023-09-28 17:36:00,SystemResetWarning,0828.0,5.00,000.00,028.2,024.6,000.0,036.5,029.9,20.6,0000.0,0019.89,0006.37,0005.10
2023-09-28 17:37:00,SystemResetWarning,0828.0,5.01,000.00,028.2,024.8,000.0,036.5,029.8,19.9,0000.0,0021.25,0006.38,0005.11
2023-09-28 17:38:00,SystemResetWarning,0828.0,5.00,000.00,028.1,025.1,000.0,036.5,029.8,20.2,0000.0,0021.33,0006.40,0005.12
2023-09-28 17:39:00,SystemResetWarning,0828.1,5.00,000.00,028.1,025.5,000.0,036.5,029.8,20.8,0000.0,0021.27,0006.38,0005.12
2023-09-28 17:40:00,SystemResetWarning,0828.1,5.01,000.00,028.1,025.9,000.0,036.6,029.9,20.9,0000.0,0021.77,0006.37,0005.11
2023-09-28 17:41:00,SystemResetWarning,0828.0,5.00,000.00,028.1,026.3,000.0,036.6,029.9,21.4,0000.0,0022.13,0006.45,0005.13
2023-09-28 17:42:00,SystemResetWarning,0828.1,5.00,000.00,028.2,026.6,000.0,036.6,030.0,20.7,0000.9,0021.26,0006.41,0005.14
2023-09-28 17:43:00,SystemResetWarning,0828.1,5.00,000.00,028.2,026.9,000.0,036.6,030.1,19.3,0002.4,0019.54,0006.38,0005.15
2023-09-28 17:44:00,SystemResetWarning,0828.1,4.99,000.00,028.3,027.0,000.0,036.6,030.2,20.2,0002.6,0018.76,0006.36,0005.17
2023-09-28 17:45:00,SystemResetWarning,0828.0,4.97,000.00,028.3,025.9,000.0,036.6,030.1,20.1,0003.0,0017.75,0006.34,0005.19
2023-09-28 17:46:00,SystemResetWarning,0828.0,5.01,000.00,028.2,024.6,000.0,036.5,029.9,20.2,0003.8,0016.61,0006.43,0005.21
2023-09-28 17:47:00,SystemResetWarning,0828.0,5.01,000.00,028.2,024.7,000.0,036.5,029.8,20.4,0003.7,0016.30,0006.41,0005.23
2023-09-28 17:48:00,SystemResetWarning,0828.0,4.99,000.00,028.1,025.1,000.0,036.5,029.8,18.9,0003.2,0015.60,0006.45,0005.24
2023-09-28 17:49:00,SystemResetWarning,0828.0,5.00,000.00,028.1,025.5,000.0,036.5,029.8,17.6,0002.8,0016.24,0006.48,0005.26
2023-09-28 17:50:00,SystemResetWarning,0827.9,5.01,000.00,028.1,025.9,000.0,036.5,029.8,16.4,0002.2,0017.33,0006.52,0005.28
2023-09-28 17:51:00,SystemResetWarning,0827.9,4.99,000.00,028.1,026.2,000.0,036.6,029.9,16.4,0002.0,0017.44,0006.55,0005.29
2023-09-28 17:52:00,SystemResetWarning,0827.9,5.00,000.00,028.2,026.6,000.0,036.6,030.0,16.1,0002.1,0016.90,0006.49,0005.28
2023-09-28 17:53:00,SystemResetWarning,0827.9,5.01,000.00,028.2,026.8,000.0,036.6,030.1,16.1,0002.1,0016.84,0006.46,0005.27
2023-09-28 17:54:00,SystemResetWarning,0827.8,5.01,000.00,028.3,027.0,000.0,036.6,030.2,16.1,0002.4,0016.95,0006.48,0005.26
2023-09-28 17:55:00,SystemResetWarning,0827.8,4.98,000.00,028.3,026.1,000.0,036.6,030.1,16.5,0002.7,0017.52,0006.47,0005.25
2023-09-28 17:56:00,SystemResetWarning,0827.8,5.01,000.00,028.2,024.7,000.0,036.5,029.9,16.1,0001.6,0018.41,0006.52,0005.25
2023-09-28 17:57:00,SystemResetWarning,0828.0,5.02,000.00,028.2,024.7,000.0,036.5,029.9,15.8,0001.9,0019.02,0006.49,0005.24
2023-09-28 17:58:00,SystemResetWarning,0827.8,4.99,000.00,028.1,025.1,000.0,036.5,029.8,14.3,0001.3,0018.49,0006.43,0005.23
2023-09-28 17:59:00,SystemResetWarning,0827.8,5.00,000.00,028.1,025.4,000.0,036.5,029.8,13.8,0001.7,0018.63,0006.42,0005.24
